| time (UTC) | temp C | wind direction | speed KPH | gust KPH | rain 1hr cm | rain 24hr cm | rain mn cm | humidity % | barometer mb |
| 20260507003517 | 13 | 0.0 | 0.0 | 0.00 | 0.00 | 0.00 | 84 | 1020.3 | |
| 20260507001539 | 13 | 0.0 | 0.0 | 0.00 | 0.00 | 0.00 | 82 | 1020.2 | |
| 20260507000516 | 13 | 0.0 | 0.0 | 0.00 | 0.00 | 0.00 | 82 | 1020.1 | |
| 20260506235517 | 13 | 0.0 | 0.0 | 0.00 | 0.00 | 0.00 | 82 | 1020.1 | |
| 20260506234516 | 13 | 0.0 | 0.0 | 0.00 | 0.00 | 0.00 | 82 | 1020.1 | |
| 20260506233603 | 13 | 0.0 | 0.0 | 0.00 | 0.00 | 0.00 | 82 | 1020.3 | |
| 20260506232524 | 13 | 0.0 | 0.0 | 0.00 | 0.00 | 0.00 | 81 | 1020.3 | |
| 20260506231516 | 13 | 0.0 | 0.0 | 0.00 | 0.00 | 0.00 | 82 | 1020.4 | |
| 20260506230556 | 13 | 0.0 | 0.0 | 0.00 | 0.00 | 0.00 | 80 | 1020.3 | |
| 20260506225516 | 13 | 0.0 | 0.0 | 0.00 | 0.00 | 0.00 | 80 | 1020.3 | |
| 20260506224516 | 13 | 0.0 | 0.0 | 0.00 | 0.00 | 0.00 | 81 | 1020.3 | |
| 20260506223516 | 13 | 0.0 | 0.0 | 0.00 | 0.00 | 0.00 | 79 | 1020.3 | |
| 20260506222516 | 13 | 0.0 | 0.0 | 0.00 | 0.00 | 0.00 | 80 | 1020.2 | |
| 20260506221516 | 13 | 0.0 | 0.0 | 0.00 | 0.00 | 0.00 | 79 | 1020.4 | |
| 20260506220516 | 13 | 0.0 | 0.0 | 0.00 | 0.00 | 0.00 | 79 | 1020.3 | |
| 20260506215516 | 13 | 0.0 | 1.6 | 0.00 | 0.00 | 0.00 | 80 | 1020.4 | |
| 20260506214516 | 13 | 0.0 | 1.6 | 0.00 | 0.00 | 0.00 | 80 | 1020.5 | |
| 20260506213516 | 13 | 0.0 | 1.6 | 0.00 | 0.00 | 0.00 | 80 | 1020.5 | |
| 20260506212516 | 13 | 0.0 | 1.6 | 0.00 | 0.00 | 0.00 | 79 | 1020.4 | |
| 20260506211516 | 13 | 0.0 | 0.0 | 0.00 | 0.00 | 0.00 | 81 | 1020.4 | |
| 20260506210636 | 13 | 0.0 | 1.6 | 0.00 | 0.00 | 0.00 | 80 | 1020.5 | |
| 20260506205516 | 13 | 0.0 | 0.0 | 0.00 | 0.00 | 0.00 | 81 | 1020.5 | |
| 20260506204556 | 13 | 0.0 | 0.0 | 0.00 | 0.00 | 0.00 | 80 | 1020.5 | |
| 20260506203516 | 13 | 0.0 | 0.0 | 0.00 | 0.00 | 0.00 | 80 | 1020.4 | |
| 20260506202516 | 12 | 0.0 | 1.6 | 0.00 | 0.00 | 0.00 | 80 | 1020.4 | |
| 20260506201516 | 12 | 0.0 | 1.6 | 0.00 | 0.00 | 0.00 | 81 | 1020.5 | |
| 20260506200516 | 12 | 0.0 | 3.2 | 0.00 | 0.00 | 0.00 | 81 | 1020.4 | |
| 20260506195516 | 12 | 0.0 | 4.8 | 0.00 | 0.00 | 0.00 | 81 | 1020.3 | |
| 20260506194516 | 12 | 0.0 | 0.0 | 0.00 | 0.00 | 0.00 | 82 | 1020.2 | |
| 20260506193516 | 12 | 0.0 | 1.6 | 0.00 | 0.00 | 0.00 | 83 | 1020.2 | |
| 20260506192540 | 12 | 0.0 | 0.0 | 0.00 | 0.00 | 0.00 | 84 | 1020.1 | |
| 20260506191516 | 12 | 0.0 | 0.0 | 0.00 | 0.00 | 0.00 | 84 | 1020.2 | |
| 20260506190516 | 12 | 0.0 | 3.2 | 0.00 | 0.00 | 0.00 | 84 | 1020.1 | |
| 20260506185516 | 12 | 0.0 | 1.6 | 0.00 | 0.00 | 0.00 | 85 | 1020.1 | |
| 20260506184516 | 12 | 0.0 | 1.6 | 0.00 | 0.00 | 0.00 | 85 | 1020.1 | |
| 20260506183601 | 12 | 0.0 | 1.6 | 0.00 | 0.00 | 0.00 | 87 | 1020.1 | |
| 20260506182556 | 11 | 0.0 | 4.8 | 0.00 | 0.00 | 0.00 | 86 | 1020.0 | |
| 20260506181526 | 12 | 0.0 | 0.0 | 0.00 | 0.00 | 0.00 | 86 | 1019.8 | |
| 20260506180520 | 12 | 0.0 | 3.2 | 0.00 | 0.00 | 0.00 | 86 | 1019.8 | |
| 20260506175520 | 12 | 0.0 | 6.4 | 0.00 | 0.00 | 0.00 | 86 | 1019.8 | |
| 20260506174519 | 12 | 0.0 | 1.6 | 0.00 | 0.00 | 0.00 | 87 | 1019.8 | |
| 20260506173515 | 12 | 0.0 | 1.6 | 0.00 | 0.00 | 0.00 | 88 | 1019.7 | |
| 20260506172516 | 12 | 0.0 | 1.6 | 0.00 | 0.00 | 0.00 | 88 | 1019.4 | |
| 20260506171516 | 12 | 0.0 | 3.2 | 0.00 | 0.00 | 0.00 | 87 | 1019.6 | |
| 20260506170516 | 12 | 0.0 | 1.6 | 0.00 | 0.00 | 0.00 | 88 | 1019.8 | |
| 20260506165515 | 12 | 0.0 | 1.6 | 0.00 | 0.00 | 0.00 | 88 | 1019.8 | |
| 20260506164516 | 11 | 0.0 | 1.6 | 0.00 | 0.00 | 0.00 | 88 | 1019.6 | |
| 20260506163555 | 11 | 0.0 | 1.6 | 0.00 | 0.00 | 0.00 | 89 | 1019.7 | |
| 20260506162515 | 11 | 0.0 | 1.6 | 0.00 | 0.00 | 0.00 | 89 | 1019.9 | |
| 20260506160516 | 11 | 0.0 | 3.2 | 0.00 | 0.00 | 0.00 | 90 | 1019.7 | |
| 20260506155519 | 11 | 0.0 | 1.6 | 0.00 | 0.00 | 0.00 | 91 | 1019.2 | |
| 20260506154536 | 11 | 0.0 | 0.0 | 0.00 | 0.00 | 0.00 | 92 | 1018.9 | |
| 20260506153550 | 11 | 0.0 | 0.0 | 0.00 | 0.00 | 0.00 | 92 | 1018.8 | |
| 20260506152518 | 11 | 0.0 | 0.0 | 0.00 | 0.00 | 0.00 | 92 | 1019.0 | |
| 20260506151516 | 11 | 0.0 | 0.0 | 0.00 | 0.00 | 0.00 | 92 | 1019.1 | |
| 20260506150726 | 11 | 0.0 | 0.0 | 0.00 | 0.00 | 0.00 | 93 | 1019.3 | |
| 20260506145603 | 11 | 0.0 | 0.0 | 0.00 | 0.00 | 0.00 | 92 | 1019.3 | |
| 20260506144528 | 11 | 0.0 | 0.0 | 0.00 | 0.00 | 0.00 | 93 | 1019.4 | |
| 20260506143517 | 11 | 0.0 | 0.0 | 0.00 | 0.00 | 0.00 | 93 | 1018.9 | |
| 20260506142517 | 11 | 0.0 | 0.0 | 0.00 | 0.00 | 0.00 | 93 | 1018.9 | |
| 20260506141518 | 11 | 0.0 | 0.0 | 0.00 | 0.00 | 0.00 | 93 | 1018.8 | |
| 20260506140517 | 10 | 0.0 | 0.0 | 0.00 | 0.00 | 0.00 | 94 | 1018.9 | |
| 20260506135517 | 10 | 0.0 | 1.6 | 0.00 | 0.00 | 0.00 | 94 | 1018.8 | |
| 20260506134517 | 10 | 0.0 | 0.0 | 0.00 | 0.00 | 0.00 | 93 | 1018.8 | |
| 20260506133557 | 10 | 0.0 | 0.0 | 0.00 | 0.00 | 0.00 | 93 | 1018.8 | |
| 20260506132517 | 10 | 0.0 | 0.0 | 0.00 | 0.00 | 0.00 | 93 | 1018.9 | |
| 20260506131518 | 11 | 0.0 | 1.6 | 0.00 | 0.00 | 0.00 | 92 | 1018.7 | |
| 20260506130557 | 11 | 0.0 | 1.6 | 0.00 | 0.00 | 0.00 | 92 | 1018.7 | |
| 20260506125522 | 11 | 0.0 | 1.6 | 0.00 | 0.00 | 0.00 | 92 | 1018.6 | |
| 20260506124528 | 11 | 0.0 | 4.8 | 0.00 | 0.00 | 0.00 | 92 | 1018.5 | |
| 20260506123615 | 11 | 0.0 | 3.2 | 0.00 | 0.00 | 0.00 | 92 | 1018.2 | |
| 20260506122542 | 11 | 0.0 | 1.6 | 0.00 | 0.00 | 0.00 | 93 | 1018.2 | |
| 20260506121517 | 11 | 0.0 | 0.0 | 0.00 | 0.00 | 0.00 | 93 | 1018.4 | |
| 20260506120517 | 11 | 0.0 | 1.6 | 0.00 | 0.00 | 0.00 | 94 | 1018.2 | |
| 20260506114517 | 10 | 0.0 | 0.0 | 0.00 | 0.00 | 0.00 | 95 | 1018.1 | |
| 20260506113517 | 10 | 0.0 | 1.6 | 0.00 | 0.00 | 0.00 | 95 | 1018.0 | |
| 20260506112517 | 10 | 0.0 | 0.0 | 0.00 | 0.00 | 0.00 | 95 | 1018.0 | |
| 20260506111517 | 10 | 0.0 | 0.0 | 0.00 | 0.00 | 0.00 | 95 | 1017.8 | |
| 20260506110517 | 10 | 0.0 | 0.0 | 0.00 | 0.00 | 0.00 | 96 | 1017.7 | |
| 20260506105517 | 10 | 0.0 | 0.0 | 0.00 | 0.00 | 0.00 | 96 | 1017.8 | |
| 20260506104517 | 9 | 0.0 | 0.0 | 0.00 | 0.00 | 0.00 | 95 | 1017.6 | |
| 20260506103517 | 9 | 0.0 | 0.0 | 0.00 | 0.00 | 0.00 | 95 | 1017.6 | |
| 20260506101516 | 8 | 0.0 | 0.0 | 0.00 | 0.00 | 0.00 | 95 | 1017.4 | |
| 20260506100516 | 8 | 0.0 | 0.0 | 0.00 | 0.00 | 0.00 | 95 | 1017.6 | |
| 20260506095516 | 8 | 0.0 | 0.0 | 0.00 | 0.00 | 0.00 | 95 | 1017.4 | |
| 20260506094516 | 8 | 0.0 | 0.0 | 0.00 | 0.00 | 0.00 | 95 | 1017.4 | |
| 20260506093516 | 8 | 0.0 | 0.0 | 0.00 | 0.00 | 0.00 | 95 | 1017.4 | |
| 20260506092517 | 8 | 0.0 | 0.0 | 0.00 | 0.00 | 0.00 | 94 | 1017.3 | |
| 20260506091516 | 9 | 0.0 | 0.0 | 0.00 | 0.00 | 0.00 | 94 | 1017.3 | |
| 20260506090517 | 9 | 0.0 | 0.0 | 0.00 | 0.00 | 0.00 | 94 | 1017.3 | |
| 20260506085517 | 9 | 0.0 | 0.0 | 0.00 | 0.00 | 0.00 | 94 | 1017.3 | |
| 20260506084517 | 9 | 0.0 | 0.0 | 0.00 | 0.00 | 0.00 | 94 | 1017.2 | |
| 20260506083516 | 9 | 0.0 | 0.0 | 0.00 | 0.00 | 0.00 | 94 | 1017.1 | |
| 20260506082517 | 9 | 0.0 | 0.0 | 0.00 | 0.00 | 0.00 | 94 | 1017.0 | |
| 20260506081516 | 9 | 0.0 | 0.0 | 0.00 | 0.00 | 0.00 | 94 | 1017.0 | |
| 20260506080516 | 9 | 0.0 | 0.0 | 0.00 | 0.00 | 0.00 | 93 | 1016.8 | |
| 20260506073516 | 10 | 0.0 | 0.0 | 0.00 | 0.00 | 0.00 | 93 | 1016.7 | |
| 20260506072516 | 10 | 0.0 | 0.0 | 0.00 | 0.00 | 0.00 | 93 | 1016.5 | |
| 20260506071516 | 10 | 0.0 | 0.0 | 0.00 | 0.00 | 0.00 | 93 | 1016.4 | |
| 20260506070516 | 10 | 0.0 | 0.0 | 0.00 | 0.00 | 0.00 | 92 | 1016.4 | |
| 20260506062517 | 11 | 0.0 | 0.0 | 0.00 | 0.00 | 0.00 | 91 | 1016.2 | |
| 20260506061517 | 11 | 0.0 | 0.0 | 0.00 | 0.00 | 0.00 | 91 | 1016.1 | |
| 20260506060518 | 11 | 0.0 | 0.0 | 0.00 | 0.00 | 0.00 | 91 | 1016.2 | |
| 20260506050527 | 12 | 0.0 | 0.0 | 0.00 | 0.00 | 0.00 | 89 | 1015.5 | |
| 20260506044517 | 13 | 0.0 | 0.0 | 0.00 | 0.00 | 0.00 | 89 | 1015.2 | |
| 20260506043526 | 13 | 0.0 | 0.0 | 0.00 | 0.00 | 0.00 | 88 | 1015.3 | |
| 20260506042545 | 13 | 0.0 | 0.0 | 0.00 | 0.00 | 0.00 | 88 | 1015.2 | |
| 20260506041517 | 13 | 0.0 | 0.0 | 0.00 | 0.00 | 0.00 | 87 | 1015.2 | |
| 20260506040532 | 13 | 0.0 | 0.0 | 0.00 | 0.00 | 0.00 | 87 | 1014.9 | |
| 20260506035517 | 13 | 0.0 | 0.0 | 0.00 | 0.00 | 0.00 | 86 | 1015.1 | |
| 20260506034517 | 14 | 0.0 | 0.0 | 0.00 | 0.00 | 0.00 | 86 | 1015.0 | |
| 20260506033517 | 14 | 0.0 | 0.0 | 0.00 | 0.00 | 0.00 | 85 | 1014.9 | |
| 20260506032517 | 14 | 0.0 | 0.0 | 0.00 | 0.00 | 0.00 | 85 | 1014.8 | |
| 20260506031517 | 15 | 0.0 | 0.0 | 0.00 | 0.00 | 0.00 | 84 | 1014.6 | |
| 20260506030517 | 15 | 0.0 | 0.0 | 0.00 | 0.00 | 0.00 | 83 | 1014.6 | |
| 20260506025517 | 15 | 0.0 | 0.0 | 0.00 | 0.00 | 0.00 | 82 | 1014.5 | |
| 20260506023517 | 15 | 0.0 | 0.0 | 0.00 | 0.00 | 0.00 | 80 | 1014.4 | |
| 20260506022649 | 16 | 0.0 | 0.0 | 0.00 | 0.00 | 0.00 | 80 | 1014.5 | |
| 20260506021517 | 16 | 0.0 | 0.0 | 0.00 | 0.00 | 0.00 | 80 | 1014.6 | |
| 20260506020516 | 16 | 0.0 | 0.0 | 0.00 | 0.00 | 0.00 | 78 | 1014.5 | |
| 20260506015637 | 16 | 0.0 | 0.0 | 0.00 | 0.00 | 0.00 | 78 | 1014.5 | |
| 20260506014517 | 16 | 0.0 | 0.0 | 0.00 | 0.00 | 0.00 | 78 | 1014.5 | |
| 20260506013556 | 16 | 0.0 | 0.0 | 0.00 | 0.00 | 0.00 | 76 | 1014.5 | |
| 20260506012557 | 16 | 0.0 | 0.0 | 0.00 | 0.00 | 0.00 | 76 | 1014.5 | |
| 20260506011557 | 16 | 0.0 | 0.0 | 0.00 | 0.00 | 0.00 | 76 | 1014.6 | |
| 20260506010556 | 16 | 0.0 | 1.6 | 0.00 | 0.00 | 0.00 | 75 | 1014.7 | |
| 20260506005556 | 17 | 0.0 | 1.6 | 0.00 | 0.00 | 0.00 | 74 | 1014.6 | |
| 20260506004516 | 17 | 0.0 | 0.0 | 0.00 | 0.00 | 0.00 | 74 | 1014.5 |